User: anonymous   Login
Location: Unspecified
(0.0000°N, 0.0000°E)
Time: 11:48:42
(UTC+00:00)
Language:

UPSAT - Orbit

View from above orbital plane
View from above orbital plane
View from above satellite
View from above satellite

Ground track
Ground track

The orbit data is extracted from the following two-line orbital elements,

1 42716U 98067LX  18168.75208067 +.00033717 +00000-0 +21651-3 0  9998
2 42716 051.6337 347.6993 0002992 237.0032 123.0680 15.75901978061860
Epoch (UTC): 17 June 2018 18:02:59
Eccentricity: 0.0002992
inclination: 51.6337°
perigee height: 340 km
apogee height: 344 km
right ascension of ascending node: 347.6993°
argument of perigee: 237.0032°
revolutions per day: 15.75901978
mean anomaly at epoch: 123.0680°
orbit number at epoch: 6186

The dashed part of the orbit path shows where the satellite is in the earth's shadow,  

DLR